Tracking 28920 objects as of 24-May-2024
HD Live streaming from Space Station
objects crossing your sky now

ION SCV-007

Track ION SCV-007 now!
10-day predictions
ION SCV-007 is classified as:


NORAD ID: 55060
Int'l Code: 2023-001BD
Perigee: 642.3 km
Apogee: 658.8 km
Inclination: 98.0 °
Period: 97.6 minutes
Semi major axis: 7021 km
RCS: Unknown
Launch date: January 3, 2023
Source: Italy (IT)
Launch site: AIR FORCE EASTERN TEST RANGE (AFETR)

Uplink (MHz):
Downlink (MHz): 401.415
Beacon (MHz):
Mode: 1200bps FSK
Call sign:
Status: Active

Your satellite tracking list
Your tracking list is empty




NASA's NSSDC Master Catalog

Two Line Element Set (TLE):
1 55060U 23001BD  24145.20109828  .00001296  00000-0  19753-3 0  9994
2 55060  97.9997 208.2415 0011794 236.1984 123.8103 14.75550725 74960
Source of the keplerian elements: AFSPC